Temp
-7 -7 -7 -7 -7 -7 -7 -7 -7 -7 -7 -7 -7 -7 -8 -8 -8 -8 -8 -8 -8 -8 -8 -8 -8 -9 -9 -8 -8 -8 -8 -8 -8 -8 -8 -8 -8 -8 -8 -7 -7 -7 -7
-7 -7 -7 -7 -7 -7 -7 -7 -7 -7 -7 -7 -7 -8 -7 -7 -8 -8 -8 -8 -8 -8 -8 -8 -9 -9 -9 -9 -9 -9 -9 -9 -9 -9 -8 -8 -8 -8 -8 -7 -7 -7 -7
-6 -6 -7 -7 -7 -7 -7 -7 -7 -7 -7 -7 -7 -7 -7 -7 -8 -8 -8 -9 -9 -9 -9 -9 -9 -10 -10 -9 -9 -9 -9 -9 -9 -9 -9 -8 -8 -8 -8 -7 -7 -7 -7
-6 -7 -7 -7 -7 -7 -7 -7 -7 -7 -7 -7 -7 -7 -7 -8 -8 -8 -9 -8 -8 -8 -9 -10 -10 -10 -10 -10 -10 -9 -9 -9 -9 -8 -8 -8 -8 -8 -8 -7 -7 -7 -7
-6 -6 -7 -7 -7 -8 -8 -8 -8 -7 -7 -7 -7 -8 -8 -8 -8 -8 -8 -9 -8 -8 -8 -8 -10 -10 -10 -9 -9 -9 -9 -9 -8 -8 -8 -8 -8 -8 -7 -7 -7 -7 -7
-6 -6 -7 -7 -7 -7 -7 -7 -7 -7 -7 -7 -7 -7 -8 -8 -8 -8 -9 -9 -9 -8 -9 -9 -9 -9 -9 -9 -9 -9 -9 -9 -9 -8 -8 -8 -8 -8 -8 -7 -7 -7 -7
-6 -6 -7 -7 -7 -6 -7 -7 -7 -7 -7 -7 -7 -7 -8 -8 -8 -9 -9 -9 -9 -9 -9 -9 -9 -9 -9 -9 -9 -9 -9 -9 -8 -8 -8 -8 -8 -8 -7 -7 -7 -7 -7
-6 -6 -6 -6 -6 -6 -6 -6 -6 -6 -6 -7 -7 -7 -7 -8 -8 -9 -9 -9 -9 -9 -8 -9 -9 -9 -9 -8 -9 -9 -9 -9 -8 -8 -8 -8 -8 -7 -7 -7 -7 -7 -7
-6 -6 -6 -6 -6 -6 -6 -6 -6 -6 -6 -7 -7 -7 -7 -8 -8 -9 -9 -9 -9 -9 -8 -8 -9 -9 -8 -9 -9 -9 -8 -8 -8 -8 -8 -7 -8 -7 -7 -7 -7 -7 -7
-6 -6 -6 -6 -6 -6 -6 -6 -6 -6 -6 -7 -7 -7 -7 -8 -8 -8 -8 -9 -9 -9 -9 -9 -9 -9 -9 -9 -9 -9 -9 -9 -8 -8 -8 -8 -8 -8 -7 -7 -7 -7 -7
-6 -6 -6 -6 -6 -6 -6 -6 -6 -6 -7 -7 -7 -7 -7 -8 -8 -8 -8 -9 -9 -9 -9 -9 -9 -8 -9 -9 -9 -9 -9 -9 -8 -8 -8 -8 -8 -8 -8 -7 -7 -7 -7
-5 -6 -5 -6 -6 -6 -6 -6 -6 -7 -7 -7 -7 -7 -7 -7 -8 -8 -8 -9 -9 -9 -9 -9 -8 -8 -8 -9 -8 -9 -9 -8 -8 -8 -8 -8 -8 -8 -7 -7 -7 -8 -8
-5 -6 -5 -6 -6 -6 -6 -6 -6 -6 -7 -7 -7 -7 -8 -7 -8 -8 -8 -9 -9 -9 -9 -9 -8 -8 -8 -8 -8 -8 -8 -8 -8 -8 -8 -8 -8 -7 -7 -8 -8 -8 -8
-5 -5 -5 -5 -6 -5 -6 -6 -6 -6 -6 -7 -7 -7 -7 -7 -8 -8 -8 -9 -9 -9 -9 -9 -9 -9 -8 -8 -8 -8 -8 -8 -7 -7 -7 -7 -7 -7 -8 -8 -8 -8 -8
-5 -5 -5 -5 -5 -5 -5 -5 -6 -6 -6 -6 -7 -7 -7 -7 -8 -8 -9 -8 -8 -8 -8 -9 -8 -8 -8 -7 -7 -8 -7 -7 -7 -7 -7 -7 -7 -7 -8 -8 -8 -8 -8
-5 -5 -5 -4 -5 -5 -4 -5 -6 -6 -6 -6 -6 -6 -7 -7 -7 -7 -8 -7 -8 -8 -8 -8 -8 -7 -7 -7 -7 -7 -7 -7 -7 -7 -7 -7 -7 -8 -8 -8 -8 -8 -9
-4 -4 -5 -4 -5 -5 -5 -5 -6 -6 -6 -6 -6 -6 -7 -7 -7 -7 -7 -8 -8 -8 -7 -7 -8 -7 -7 -7 -7 -7 -7 -7 -7 -7 -8 -8 -8 -9 -9 -8 -8 -9 -9
-4 -5 -5 -4 -4 -5 -5 -5 -5 -6 -6 -6 -6 -7 -7 -7 -7 -7 -7 -7 -7 -7 -7 -7 -7 -7 -7 -7 -7 -7 -7 -7 -7 -7 -7 -8 -9 -9 -9 -9 -9 -9 -9
-5 -4 -4 -4 -4 -5 -5 -5 -5 -5 -6 -6 -6 -6 -7 -7 -7 -7 -7 -7 -6 -7 -6 -7 -7 -7 -6 -6 -6 -6 -6 -7 -7 -7 -7 -8 -9 -9 -9 -9 -10 -9 -9
-5 -5 -4 -4 -5 -5 -5 -5 -5 -6 -6 -6 -6 -6 -6 -6 -7 -6 -6 -7 -6 -6 -6 -7 -6 -6 -6 -6 -7 -7 -6 -7 -7 -8 -7 -8 -8 -9 -9 -9 -9 -10 -9
-5 -5 -5 -4 -4 -5 -5 -5 -5 -5 -6 -6 -6 -6 -6 -6 -6 -6 -6 -6 -7 -6 -6 -6 -6 -6 -7 -6 -6 -7 -7 -6 -7 -7 -8 -8 -8 -8 -9 -9 -9 -9 -9
-5 -5 -5 -5 -4 -5 -5 -6 -5 -6 -5 -5 -6 -6 -6 -6 -6 -6 -6 -6 -6 -6 -6 -6 -6 -6 -6 -6 -6 -6 -7 -6 -7 -7 -7 -8 -8 -9 -9 -9 -9 -9 -9
-5 -5 -5 -5 -5 -5 -5 -5 -5 -6 -5 -5 -6 -6 -6 -6 -5 -6 -6 -6 -6 -6 -6 -6 -6 -6 -6 -6 -6 -6 -6 -7 -7 -7 -7 -8 -8 -9 -9 -9 -9 -9 -9
-5 -5 -5 -5 -5 -5 -5 -5 -5 -5 -5 -5 -5 -5 -5 -5 -5 -6 -6 -6 -6 -6 -6 -6 -7 -6 -7 -7 -7 -6 -6 -6 -6 -7 -7 -8 -8 -9 -9 -9 -9 -9 -9
-5 -4 -5 -5 -5 -5 -5 -5 -6 -5 -6 -5 -5 -6 -5 -5 -5 -5 -5 -5 -6 -6 -6 -6 -6 -7 -6 -6 -6 -7 -7 -7 -7 -7 -7 -7 -8 -8 -9 -9 -9 -9 -9
-5 -5 -5 -5 -5 -5 -5 -5 -6 -6 -6 -6 -6 -6 -6 -5 -5 -5 -5 -5 -6 -6 -6 -6 -6 -7 -6 -6 -6 -7 -7 -7 -7 -7 -8 -7 -7 -8 -8 -9 -9 -8 -8
Height
5897 5898 5898 5900 5902 5903 5904 5905 5905 5906 5906 5906 5906 5906 5907 5907 5908 5907 5907 5907 5906 5905 5905 5906 5906 5906 5906 5907 5907 5907 5907 5908 5908 5908 5909 5909 5911 5911 5912 5914 5915 5916 5916
5899 5899 5900 5902 5903 5904 5905 5906 5906 5907 5908 5908 5909 5908 5908 5907 5908 5908 5909 5909 5908 5907 5907 5907 5907 5908 5908 5909 5909 5909 5909 5910 5910 5910 5911 5912 5913 5914 5915 5917 5918 5919 5919
5900 5901 5903 5904 5905 5906 5906 5907 5908 5909 5910 5910 5910 5909 5909 5910 5910 5910 5910 5911 5909 5908 5907 5907 5907 5908 5909 5910 5911 5910 5911 5911 5912 5912 5913 5914 5915 5916 5918 5919 5920 5921 5922
5903 5904 5905 5905 5906 5906 5907 5908 5909 5910 5910 5910 5910 5911 5912 5912 5912 5913 5913 5912 5909 5906 5905 5906 5908 5910 5910 5910 5911 5912 5913 5913 5914 5915 5916 5917 5918 5919 5920 5921 5922 5922 5924
5906 5907 5907 5908 5908 5908 5909 5910 5910 5911 5912 5912 5912 5912 5912 5913 5914 5915 5914 5912 5911 5910 5908 5907 5910 5912 5912 5912 5913 5914 5915 5916 5917 5918 5919 5920 5920 5921 5922 5923 5924 5925 5926
5909 5910 5909 5910 5910 5909 5909 5909 5910 5911 5911 5912 5912 5913 5914 5916 5916 5916 5915 5915 5914 5912 5911 5912 5913 5914 5915 5914 5915 5915 5917 5918 5920 5920 5921 5922 5922 5923 5924 5925 5927 5927 5928
5912 5912 5912 5912 5912 5912 5911 5911 5912 5912 5913 5914 5915 5916 5916 5917 5918 5917 5917 5917 5917 5916 5916 5915 5915 5917 5916 5916 5917 5916 5919 5920 5921 5921 5922 5923 5923 5926 5926 5928 5929 5929 5930
5914 5915 5914 5914 5915 5915 5915 5916 5915 5915 5915 5917 5918 5918 5918 5918 5919 5919 5918 5918 5919 5919 5919 5919 5919 5919 5918 5918 5919 5919 5920 5920 5920 5922 5922 5924 5926 5928 5929 5930 5931 5932 5933
5917 5917 5917 5918 5920 5920 5919 5920 5920 5920 5920 5920 5920 5920 5920 5919 5919 5920 5919 5920 5922 5924 5924 5923 5923 5922 5922 5921 5921 5921 5921 5922 5922 5923 5925 5927 5929 5930 5930 5931 5933 5935 5936
5920 5919 5920 5922 5923 5923 5922 5922 5923 5923 5924 5923 5923 5921 5922 5922 5922 5922 5924 5925 5926 5926 5926 5926 5925 5924 5925 5926 5923 5922 5923 5924 5924 5926 5928 5930 5931 5932 5932 5934 5936 5938 5939
5922 5921 5923 5926 5925 5926 5926 5926 5926 5926 5926 5925 5925 5924 5924 5925 5925 5927 5929 5929 5926 5925 5924 5926 5927 5926 5928 5928 5926 5924 5926 5928 5929 5929 5931 5933 5936 5937 5937 5939 5940 5941 5942
5926 5924 5926 5928 5928 5929 5929 5929 5929 5929 5928 5928 5928 5928 5928 5929 5930 5930 5931 5929 5928 5930 5930 5928 5930 5929 5929 5931 5931 5929 5931 5934 5932 5933 5935 5938 5940 5941 5942 5943 5944 5945 5946
5929 5927 5929 5931 5931 5931 5932 5932 5932 5932 5930 5932 5932 5931 5932 5933 5933 5933 5933 5930 5930 5934 5934 5931 5935 5935 5931 5932 5934 5935 5935 5936 5937 5939 5941 5942 5944 5944 5945 5947 5948 5949 5950
5928 5930 5932 5935 5932 5935 5935 5936 5936 5935 5934 5937 5935 5933 5937 5937 5936 5936 5936 5937 5930 5933 5933 5935 5938 5939 5936 5935 5938 5937 5938 5940 5943 5944 5945 5947 5948 5948 5949 5951 5952 5952 5953
5933 5933 5934 5936 5937 5937 5939 5939 5940 5940 5939 5940 5938 5938 5939 5939 5938 5939 5941 5939 5940 5939 5938 5938 5941 5944 5941 5940 5940 5943 5945 5945 5947 5949 5950 5951 5952 5952 5953 5955 5955 5956 5956
5933 5935 5935 5936 5938 5941 5941 5941 5942 5943 5943 5944 5944 5942 5941 5941 5942 5943 5943 5942 5944 5944 5944 5942 5944 5944 5943 5945 5946 5947 5948 5950 5951 5952 5954 5955 5956 5956 5957 5958 5959 5959 5959
5934 5935 5936 5937 5940 5942 5941 5943 5946 5944 5944 5945 5946 5945 5945 5945 5945 5945 5946 5945 5947 5947 5946 5944 5944 5946 5949 5951 5951 5952 5953 5954 5956 5956 5957 5958 5959 5960 5961 5962 5962 5962 5962
5934 5936 5937 5939 5942 5944 5945 5946 5945 5947 5946 5945 5947 5947 5947 5947 5947 5948 5947 5948 5948 5948 5947 5948 5948 5949 5952 5955 5956 5957 5957 5958 5959 5960 5960 5961 5962 5963 5964 5965 5966 5966 5966
5935 5937 5939 5940 5943 5943 5945 5947 5947 5948 5948 5947 5949 5949 5948 5948 5950 5951 5951 5950 5951 5952 5951 5952 5953 5955 5957 5958 5959 5960 5961 5962 5962 5963 5963 5964 5965 5966 5968 5968 5969 5970 5969
5935 5937 5939 5941 5944 5945 5946 5948 5949 5950 5950 5949 5950 5950 5950 5951 5952 5953 5954 5954 5955 5955 5955 5956 5958 5959 5960 5961 5962 5963 5964 5963 5963 5966 5966 5966 5968 5969 5970 5971 5971 5972 5973
5933 5936 5939 5940 5943 5946 5946 5947 5949 5951 5951 5952 5952 5950 5950 5951 5952 5954 5955 5956 5957 5958 5958 5959 5960 5961 5962 5963 5964 5965 5966 5966 5966 5967 5968 5970 5971 5971 5973 5973 5973 5975 5975
5932 5935 5938 5941 5944 5945 5948 5949 5950 5951 5953 5953 5952 5952 5952 5952 5952 5953 5955 5957 5959 5959 5961 5962 5963 5963 5963 5965 5966 5967 5968 5969 5969 5969 5969 5972 5973 5973 5976 5975 5976 5977 5977
5931 5934 5936 5940 5943 5945 5946 5949 5950 5951 5952 5952 5953 5953 5954 5953 5955 5955 5956 5957 5959 5960 5962 5963 5966 5965 5966 5967 5968 5968 5968 5970 5970 5971 5970 5973 5974 5975 5976 5977 5978 5979 5978
5930 5932 5935 5939 5942 5944 5946 5948 5950 5951 5952 5953 5954 5955 5955 5956 5958 5958 5958 5958 5960 5961 5962 5964 5966 5966 5966 5967 5969 5969 5969 5970 5971 5971 5972 5973 5975 5976 5977 5978 5979 5980 5980
5929 5931 5934 5937 5941 5944 5946 5948 5950 5952 5952 5952 5954 5955 5956 5957 5959 5959 5960 5960 5960 5961 5963 5964 5965 5967 5968 5968 5970 5971 5972 5972 5973 5973 5974 5974 5975 5976 5978 5979 5980 5981 5980
5926 5930 5933 5936 5939 5943 5945 5948 5949 5952 5952 5952 5953 5955 5956 5957 5959 5961 5961 5962 5961 5963 5963 5965 5966 5968 5969 5969 5970 5971 5972 5972 5973 5973 5974 5976 5977 5977 5978 5979 5980 5980 5981
Wind_Speed
13 14 17 17 15 14 13 13 13 13 12 10 9 8 8 8 7 7 8 8 7 7 8 8 7 8 8 9 9 10 12 11 11 10 9 8 9 11 11 11 12 16 17
11 13 15 14 13 12 11 11 10 9 9 8 7 6 7 7 8 8 7 7 7 7 7 6 6 6 6 8 10 12 12 12 12 12 10 10 11 12 11 12 15 17 17
14 13 13 12 11 9 7 8 6 5 5 4 5 6 6 7 7 8 9 10 8 6 4 4 5 5 5 9 12 11 12 12 12 12 12 12 13 13 13 14 16 17 17
14 14 12 11 9 6 6 6 5 4 4 4 6 6 6 7 9 10 12 13 13 9 7 6 7 9 7 7 9 8 11 11 11 12 11 13 13 14 14 16 17 17 16
12 12 12 10 9 7 6 5 5 5 5 7 8 9 9 10 11 14 14 14 21 21 21 19 21 19 16 14 13 11 10 10 10 10 10 12 13 15 16 17 16 16 15
12 11 13 12 10 10 9 9 9 9 8 10 10 12 12 12 14 16 15 17 17 18 21 24 21 16 13 12 12 11 11 13 9 10 11 12 13 15 16 17 16 16 14
12 13 14 14 15 15 15 15 15 14 13 13 13 14 15 16 17 18 17 20 20 19 17 19 18 15 14 11 11 10 11 11 10 13 13 13 15 14 15 15 16 15 14
13 14 16 17 18 18 19 20 20 20 19 18 17 16 15 17 18 18 18 20 20 19 20 20 17 17 16 16 14 13 11 14 14 15 17 15 15 14 14 15 16 14 15
13 15 16 17 19 19 20 20 20 20 20 20 18 16 15 17 18 17 17 18 18 19 19 18 18 16 17 16 13 10 11 12 13 18 19 18 16 14 15 16 15 16 18
13 15 16 17 19 18 19 20 19 19 18 18 18 18 16 16 18 16 16 17 17 18 18 18 18 18 20 17 14 11 14 17 18 23 22 20 19 20 21 21 22 22 21
13 16 15 16 15 15 17 18 17 18 17 18 17 18 17 15 16 17 16 16 15 17 18 18 18 19 21 20 21 24 22 24 24 26 26 27 26 28 29 28 26 23 21
13 14 14 14 13 13 14 15 14 15 17 16 18 16 15 15 16 18 18 15 13 18 18 20 15 19 22 22 20 24 24 25 28 30 29 28 27 28 27 26 24 24 22
12 14 13 13 13 12 12 15 14 15 14 14 17 15 16 16 17 17 17 15 15 21 21 21 16 17 21 23 21 23 26 29 30 28 27 27 26 26 25 25 25 23 22
10 10 12 12 13 11 12 13 15 13 15 15 15 15 15 17 18 16 17 18 17 23 20 18 17 15 18 23 21 25 28 28 26 26 26 25 24 24 24 25 23 21 21
8 9 10 10 12 11 11 12 14 11 11 14 16 14 15 13 14 15 17 19 20 19 19 18 19 15 20 22 25 25 24 25 25 24 22 21 22 23 22 23 21 21 21
10 9 6 7 8 9 8 12 12 10 10 11 13 13 16 14 14 19 17 16 19 21 19 21 21 22 22 22 23 23 22 23 23 22 20 19 20 21 21 21 19 20 21
10 8 8 6 7 5 7 10 8 11 9 12 13 13 13 14 14 19 15 16 19 18 21 24 25 24 22 21 21 20 20 20 18 18 20 19 21 20 20 19 19 19 20
10 10 8 7 8 6 4 7 8 10 9 10 12 11 10 11 15 14 16 16 18 19 20 22 23 23 21 18 18 17 18 16 15 16 16 19 21 20 18 19 18 19 19
10 10 9 7 8 7 6 4 6 7 9 10 10 11 10 8 12 14 13 14 15 15 18 17 18 17 15 15 15 15 14 15 15 14 14 18 20 19 16 18 19 18 17
13 11 8 6 5 5 5 3 3 5 8 9 9 11 10 9 9 12 10 11 13 14 14 15 14 14 12 13 13 10 9 15 17 13 14 18 18 18 16 15 18 15 14
14 13 11 9 6 5 3 3 4 3 5 5 6 9 7 8 8 10 10 10 10 11 13 11 11 12 11 11 10 10 6 11 15 17 16 17 16 16 14 13 16 12 9
16 15 14 12 7 5 6 6 4 4 3 4 5 5 6 7 7 7 9 7 8 10 10 11 10 10 11 12 11 11 7 9 11 13 18 16 14 15 11 11 12 10 8
16 17 15 13 10 8 7 6 5 3 2 3 2 3 5 6 7 8 7 8 8 8 10 9 9 12 11 12 9 8 9 9 10 9 14 16 14 14 11 9 8 8 7
18 17 16 13 12 10 7 7 4 2 1 1 1 1 4 5 5 5 7 7 7 7 8 8 8 9 11 10 9 8 6 6 7 10 11 13 13 11 10 8 8 5 6
19 17 18 16 14 11 8 7 4 1 1 2 1 2 3 5 5 4 3 7 7 8 6 5 7 5 4 7 8 9 8 6 6 7 6 9 12 11 9 6 6 5 3
20 19 18 17 18 15 12 9 5 3 3 3 1 3 4 3 3 4 3 4 5 6 8 6 5 5 4 5 6 8 9 8 3 7 8 5 7 9 9 8 7 6 5
Wind_Direction
93 105 105 106 108 112 118 118 116 114 110 105 95 87 83 78 69 54 52 47 41 35 37 42 52 64 74 90 96 97 98 94 91 89 90 94 91 88 83 88 91 91 91
101 102 103 103 102 105 112 117 120 122 116 111 105 90 73 62 55 48 45 43 38 37 32 42 55 74 98 108 105 106 104 96 82 78 89 99 94 92 93 93 94 92 90
99 100 106 106 102 104 111 124 126 126 124 114 98 90 76 61 62 54 52 51 48 41 33 56 76 97 125 124 109 105 95 90 84 81 86 100 100 94 94 96 99 97 94
97 102 105 104 100 95 102 121 134 149 138 119 98 88 86 74 67 72 67 64 60 59 52 94 87 97 115 115 139 97 86 85 85 82 87 96 96 94 95 96 99 96 94
84 89 86 83 83 86 100 120 136 129 116 105 100 89 79 71 77 75 78 81 75 76 76 96 107 101 95 88 94 96 94 90 90 89 95 97 96 96 96 95 99 98 93
80 75 73 72 68 70 83 99 104 98 103 97 90 87 87 90 87 84 82 78 88 77 80 95 95 92 88 87 89 96 97 95 86 99 94 96 97 97 96 95 98 99 92
82 78 79 80 82 80 85 95 98 97 96 100 98 96 95 88 85 85 81 91 91 79 85 88 86 88 88 85 83 85 93 96 92 97 98 93 95 96 97 100 103 101 95
84 86 84 86 85 86 88 89 91 93 97 103 103 95 88 87 87 92 91 89 90 86 84 85 88 86 86 85 90 85 96 100 95 96 100 95 93 94 95 100 105 102 92
88 95 92 90 86 88 92 87 88 86 92 96 98 93 89 91 94 97 94 86 85 82 81 84 82 82 78 81 73 79 97 98 102 109 101 96 90 92 98 104 108 98 91
95 97 94 94 89 92 92 89 88 88 87 93 99 94 86 91 95 96 93 92 88 84 82 80 82 78 75 65 72 87 102 106 108 104 100 92 89 91 96 101 97 94 91
95 97 93 94 91 94 89 86 85 87 82 81 89 91 89 93 96 90 86 86 91 95 93 86 80 82 78 71 80 89 101 107 111 102 98 95 93 92 92 93 95 92 90
97 88 102 97 98 93 90 84 81 86 84 84 86 89 88 87 87 88 91 91 95 98 80 79 88 86 85 88 85 95 102 107 103 100 98 95 92 91 90 92 94 92 88
116 103 99 103 94 91 94 97 91 88 88 81 81 88 96 92 90 79 84 82 70 75 85 78 76 87 83 87 87 99 102 100 98 96 93 91 90 90 92 95 93 88 88
102 109 106 94 93 88 89 83 90 83 85 89 91 86 93 90 87 82 83 79 63 77 79 84 83 82 88 91 95 93 97 95 94 90 89 89 90 92 95 95 91 91 92
136 121 110 112 101 81 78 80 80 79 76 82 82 83 86 80 91 86 93 85 90 91 86 91 94 93 93 91 96 100 98 96 94 90 88 88 91 97 98 96 95 96 92
135 126 121 109 106 91 87 85 77 73 74 74 80 79 82 84 83 81 84 84 86 86 92 94 94 89 90 96 100 98 98 97 99 94 90 91 94 100 101 100 100 99 94
154 138 133 133 110 86 77 94 91 76 79 77 70 74 81 81 87 83 82 79 87 85 86 87 89 87 89 94 100 98 96 95 95 96 97 94 99 102 103 105 105 102 98
175 165 149 149 128 121 103 98 94 95 84 76 82 78 77 77 83 93 87 85 80 85 82 82 89 94 98 98 94 95 94 93 94 94 98 104 108 108 110 112 109 103 95
194 192 176 155 136 131 114 81 76 77 81 80 80 91 89 77 75 88 93 89 90 91 95 93 93 96 96 94 98 102 101 100 94 95 96 106 115 114 117 116 113 102 97
195 201 198 185 156 139 119 139 114 83 82 71 59 75 86 100 100 93 95 100 102 96 94 101 103 100 100 102 103 100 94 103 101 99 98 112 118 118 122 124 118 113 101
196 198 199 212 191 156 157 160 106 76 79 83 65 59 76 97 105 100 106 112 104 104 97 100 108 106 102 103 108 101 88 107 110 111 104 111 115 114 128 132 124 126 122
197 193 206 203 207 186 168 163 142 138 137 90 70 68 80 104 124 108 108 104 110 107 110 102 110 116 111 97 99 101 100 116 120 118 116 124 123 119 131 131 131 136 131
200 192 204 203 193 203 183 163 157 156 154 62 80 104 113 122 124 125 114 106 135 125 116 110 114 116 108 100 89 91 119 131 134 131 125 135 129 131 125 133 135 144 130
205 195 200 200 195 206 198 173 192 174 107 105 131 25 104 111 105 115 119 116 108 123 125 131 120 122 116 105 85 70 79 137 155 138 139 135 134 138 141 137 140 151 145
207 200 197 191 200 201 203 185 187 254 251 264 69 145 127 120 125 130 114 111 100 94 126 127 122 118 113 94 91 92 78 98 137 122 155 136 140 139 150 150 138 165 166
206 204 202 195 198 200 204 209 226 236 234 233 167 187 176 156 141 145 146 101 103 92 105 118 128 142 151 105 104 95 99 90 93 139 152 148 142 144 148 154 162 171 184